Voltar ao catálogo

THORAD DELTA 1 DEB

AtivoLEO
NORAD 8300·DEBRIS·🇺🇸 United States

Lançado Nov 15, 1974 de Vandenberg Space Force Base

Loading…

Próximas Passagens (próximas 24 horas)

TLE

AtualizadoSource: Space-Track

Época: Sep 14, 2026, 07:58 UTC

1 08300U 74089BH  26257.33255524 -.00000235  00000-0 -20783-2 0  9994
2 08300 100.8956 201.1596 0340872 193.4575 322.4294 12.00641227552838

Acompanhe THORAD DELTA 1 DEB em tempo real com AllMySat

Download on the App Store